EW7704 Weather Reports


Display with metric or nautical units.
time (UTC)temp
F
wind
direction
speed
MPH
gust
MPH
rain 1hr
in
rain 24hr
in
rain mn
in
humidity
%
barometer
mb
20260504050534 57 350 0.0 2.0 0.00 0.00 0.00 34 1003.9
20260504045536 57 237 0.0 4.0 0.00 0.00 0.00 34 1004.0
20260504045033 58 228 0.0 4.0 0.00 0.00 0.00 33 1004.0
20260504044535 58 241 1.0 3.0 0.00 0.00 0.00 33 1003.9
20260504044033 59 239 0.0 3.0 0.00 0.00 0.00 32 1004.0
20260504043532 59 221 1.0 3.0 0.00 0.00 0.00 33 1004.1
20260504043032 60 291 0.0 2.0 0.00 0.00 0.00 32 1004.0
20260504042532 59 210 0.0 3.0 0.00 0.00 0.00 33 1003.7
20260504042031 60 227 0.0 2.0 0.00 0.00 0.00 33 1003.8
20260504041531 60 204 0.0 3.0 0.00 0.00 0.00 33 1003.7
20260504041032 60 220 0.0 3.0 0.00 0.00 0.00 32 1003.9
20260504040531 60 210 0.0 4.0 0.00 0.00 0.00 32 1003.9
20260504040031 60 237 1.0 4.0 0.00 0.00 0.00 32 1003.9
20260504035535 60 196 1.0 3.0 0.00 0.00 0.00 32 1004.0
20260504035030 60 232 0.0 3.0 0.00 0.00 0.00 32 1004.0
20260504034530 60 208 1.0 3.0 0.00 0.00 0.00 32 1004.0
20260504034030 60 216 0.0 2.0 0.00 0.00 0.00 32 1004.0
20260504033530 59 228 0.0 1.0 0.00 0.00 0.00 32 1004.1
20260504033036 58 113 0.0 0.0 0.00 0.00 0.00 33 1004.0
20260504032530 59 115 0.0 1.0 0.00 0.00 0.00 34 1004.0
20260504032032 59 115 0.0 1.0 0.00 0.00 0.00 33 1004.0
20260504031530 59 115 0.0 0.0 0.00 0.00 0.00 33 1004.0
20260504031029 60 115 0.0 0.0 0.00 0.00 0.00 33 1003.9
20260504030529 60 115 0.0 0.0 0.00 0.00 0.00 31 1003.9
20260504030030 61 115 0.0 0.0 0.00 0.00 0.00 31 1003.9
20260504025529 61 127 0.0 0.0 0.00 0.00 0.00 31 1003.8
20260504025032 61 129 0.0 0.0 0.00 0.00 0.00 30 1003.8
20260504024530 61 197 0.0 0.0 0.00 0.00 0.00 30 1003.8
20260504024029 62 185 0.0 0.0 0.00 0.00 0.00 29 1003.7
20260504023528 62 194 0.0 2.0 0.00 0.00 0.00 29 1003.7
20260504023029 63 194 0.0 2.0 0.00 0.00 0.00 28 1003.7
20260504022528 63 203 0.0 2.0 0.00 0.00 0.00 29 1003.8
20260504022029 63 254 0.0 2.0 0.00 0.00 0.00 29 1003.7
20260504021528 63 252 0.0 1.0 0.00 0.00 0.00 29 1003.6
20260504021027 64 250 0.0 0.0 0.00 0.00 0.00 28 1003.6
20260504020527 64 246 0.0 1.0 0.00 0.00 0.00 28 1003.6
20260504020029 64 248 0.0 1.0 0.00 0.00 0.00 27 1003.5
20260504015527 65 250 0.0 1.0 0.00 0.00 0.00 27 1003.5
20260504015030 65 252 0.0 2.0 0.00 0.00 0.00 27 1003.5
20260504014527 65 250 0.0 1.0 0.00 0.00 0.00 26 1003.5
20260504014026 66 258 0.0 1.0 0.00 0.00 0.00 26 1003.4
20260504013526 66 258 0.0 2.0 0.00 0.00 0.00 25 1003.5
20260504013034 66 259 0.0 1.0 0.00 0.00 0.00 25 1003.5
20260504012526 67 261 0.0 1.0 0.00 0.00 0.00 25 1003.5
20260504012025 67 258 0.0 2.0 0.00 0.00 0.00 24 1003.6
20260504011527 67 258 0.0 2.0 0.00 0.00 0.00 24 1003.7
20260504011023 67 251 0.0 2.0 0.00 0.00 0.00 23 1003.8
20260504010522 68 248 1.0 6.0 0.00 0.00 0.00 23 1003.8
20260504010022 68 286 1.0 6.0 0.00 0.00 0.00 23 1003.9
20260504005522 68 243 0.0 6.0 0.00 0.00 0.00 22 1003.9
20260504005022 68 206 2.0 6.0 0.00 0.00 0.00 22 1003.9
20260504004523 68 244 0.0 4.0 0.00 0.00 0.00 23 1004.0
20260504004020 68 360 1.0 3.0 0.00 0.00 0.00 22 1004.1
20260504003519 68 360 1.0 5.0 0.00 0.00 0.00 22 1004.1
20260504003025 68 360 1.0 4.0 0.00 0.00 0.00 22 1004.1
20260504002519 69 360 0.0 4.0 0.00 0.00 0.00 22 1004.0
20260504002019 69 360 2.0 4.0 0.00 0.00 0.00 22 1004.1
20260504001521 69 360 0.0 6.0 0.00 0.00 0.00 21 1004.1
20260504001017 68 360 1.0 12.0 0.00 0.00 0.00 21 1004.2
20260504000520 68 360 4.0 21.0 0.00 0.00 0.00 21 1004.4
20260504000045 69 360 7.0 21.0 0.00 0.00 0.00 22 1005.2
20260503235517 69 229 1.0 3.0 0.00 0.00 0.00 21 1004.7
20260503235018 69 250 0.0 4.0 0.00 0.00 0.00 21 1004.4
20260503234517 70 260 1.0 4.0 0.00 0.00 0.00 20 1004.4
20260503234018 70 281 0.0 2.0 0.00 0.00 0.00 20 1004.3
20260503233516 70 261 0.0 4.0 0.00 0.00 0.00 19 1004.4
20260503233016 71 246 1.0 4.0 0.00 0.00 0.00 19 1004.3
20260503232516 71 261 0.0 4.0 0.00 0.00 0.00 19 1004.4
20260503232016 71 250 1.0 4.0 0.00 0.00 0.00 19 1004.3
20260503231516 71 275 0.0 5.0 0.00 0.00 0.00 18 1004.3
20260503231016 71 211 1.0 5.0 0.00 0.00 0.00 19 1004.3
20260503230517 70 273 0.0 6.0 0.00 0.00 0.00 19 1004.3
20260503230019 70 261 1.0 9.0 0.00 0.00 0.00 18 1004.4
20260503225515 70 195 3.0 16.0 0.00 0.00 0.00 18 1004.5
20260503225016 70 196 8.0 16.0 0.00 0.00 0.00 19 1004.8
20260503224515 70 36 1.0 5.0 0.00 0.00 0.00 18 1004.6
20260503224015 70 202 2.0 5.0 0.00 0.00 0.00 19 1004.4
20260503223515 70 26 1.0 15.0 0.00 0.00 0.00 18 1004.2
20260503223015 70 76 6.0 15.0 0.00 0.00 0.00 17 1004.2
20260503222513 70 80 5.0 16.0 0.00 0.00 0.00 18 1004.6
20260503222012 70 179 4.0 16.0 0.00 0.00 0.00 18 1004.8
20260503221512 71 149 2.0 15.0 0.00 0.00 0.00 17 1004.6
20260503221015 71 240 3.0 27.0 0.00 0.00 0.00 16 1004.4
20260503220512 71 360 16.0 27.0 0.00 0.00 0.00 17 1004.8
20260503220012 72 360 6.0 17.0 0.00 0.00 0.00 14 1004.6
20260503215512 73 360 1.0 3.0 0.00 0.00 0.00 13 1004.6
20260503215013 74 360 1.0 4.0 0.00 0.00 0.00 13 1004.6
20260503214511 74 19 1.0 5.0 0.00 0.00 0.00 13 1004.6
20260503214017 74 17 2.0 5.0 0.00 0.00 0.00 13 1004.6
20260503213514 74 17 0.0 6.0 0.00 0.00 0.00 13 1004.6
20260503213010 74 360 2.0 6.0 0.00 0.00 0.00 13 1004.8
20260503212509 74 360 1.0 6.0 0.00 0.00 0.00 14 1004.8
20260503212009 75 15 2.0 8.0 0.00 0.00 0.00 14 1004.9
20260503211514 75 15 1.0 8.0 0.00 0.00 0.00 14 1004.8
20260503211010 75 14 0.0 6.0 0.00 0.00 0.00 14 1004.9
20260503210511 74 13 2.0 9.0 0.00 0.00 0.00 15 1004.9
20260503210007 75 47 3.0 14.0 0.00 0.00 0.00 12 1004.9
20260503205507 77 17 2.0 14.0 0.00 0.00 0.00 13 1005.1
20260503205007 77 226 2.0 5.0 0.00 0.00 0.00 15 1005.2
20260503204507 76 27 1.0 9.0 0.00 0.00 0.00 13 1005.2
20260503204005 76 21 2.0 9.0 0.00 0.00 0.00 15 1005.4
20260503203505 76 23 2.0 5.0 0.00 0.00 0.00 14 1005.5
20260503203010 75 16 2.0 6.0 0.00 0.00 0.00 14 1005.5
20260503202504 76 13 3.0 6.0 0.00 0.00 0.00 14 1005.7
20260503202003 77 360 3.0 6.0 0.00 0.00 0.00 14 1005.7
20260503201502 76 246 2.0 5.0 0.00 0.00 0.00 15 1005.8
20260503201001 78 193 1.0 7.0 0.00 0.00 0.00 14 1005.9
20260503200603 78 197 3.0 12.0 0.00 0.00 0.00 14 1005.9
20260503200100 78 194 6.0 12.0 0.00 0.00 0.00 13 1006.2
20260503195559 78 244 2.0 6.0 0.00 0.00 0.00 14 1006.1
20260503195058 78 261 3.0 8.0 0.00 0.00 0.00 15 1006.2
20260503194559 78 177 3.0 10.0 0.00 0.00 0.00 14 1006.3
20260503194056 77 221 3.0 10.0 0.00 0.00 0.00 15 1006.4
20260503193555 77 223 4.0 9.0 0.00 0.00 0.00 15 1006.5
20260503193055 77 223 3.0 10.0 0.00 0.00 0.00 14 1006.6
20260503192553 77 193 2.0 9.0 0.00 0.00 0.00 16 1006.8
20260503192052 77 281 3.0 10.0 0.00 0.00 0.00 14 1006.8
20260503191552 77 215 4.0 12.0 0.00 0.00 0.00 15 1007.0
20260503191055 77 252 4.0 12.0 0.00 0.00 0.00 14 1007.0
20260503190550 76 184 3.0 10.0 0.00 0.00 0.00 15 1006.9
20260503190049 76 198 3.0 10.0 0.00 0.00 0.00 14 1007.1
20260503185548 77 259 3.0 9.0 0.00 0.00 0.00 14 1007.1
20260503185047 76 225 4.0 9.0 0.00 0.00 0.00 15 1007.2
20260503184546 76 206 4.0 10.0 0.00 0.00 0.00 16 1007.4
20260503184048 76 186 5.0 14.0 0.00 0.00 0.00 16 1007.4
20260503183544 75 239 3.0 14.0 0.00 0.00 0.00 17 1007.5
20260503183045 74 27 6.0 11.0 0.00 0.00 0.00 16 1007.6
20260503182543 74 36 5.0 10.0 0.00 0.00 0.00 17 1007.7
20260503182042 74 189 5.0 10.0 0.00 0.00 0.00 15 1007.8
20260503181541 74 178 4.0 11.0 0.00 0.00 0.00 16 1007.8
20260503181041 75 198 5.0 13.0 0.00 0.00 0.00 16 1007.9
20260503180540 76 193 6.0 13.0 0.00 0.00 0.00 16 1008.0
20260503180040 75 214 4.0 10.0 0.00 0.00 0.00 16 1008.2
20260503175537 74 276 4.0 13.0 0.00 0.00 0.00 17 1008.2
20260503175036 72 252 5.0 13.0 0.00 0.00 0.00 16 1008.3
20260503174536 72 189 4.0 10.0 0.00 0.00 0.00 18 1008.3
20260503174034 71 360 4.0 14.0 0.00 0.00 0.00 17 1008.5
20260503173533 71 360 4.0 16.0 0.00 0.00 0.00 18 1008.7
20260503173047 70 360 6.0 16.0 0.00 0.00 0.00 17 1008.7
20260503172530 70 360 6.0 12.0 0.00 0.00 0.00 18 1008.8
20260503172030 71 360 4.0 10.0 0.00 0.00 0.00 17 1008.9
20260503171536 71 360 4.0 14.0 0.00 0.00 0.00 18 1008.9
20260503171029 71 360 6.0 14.0 0.00 0.00 0.00 18 1009.0
20260503170531 71 360 4.0 14.0 0.00 0.00 0.00 17 1009.0
20260503151011 68 283 0.0 6.0 0.00 0.00 0.00 23 1010.1
20260503150510 68 219 2.0 6.0 0.00 0.00 0.00 23 1010.2
20260503131047 53 113 0.0 2.0 0.00 0.00 0.00 38 1011.1
20260503130543 52 105 0.0 3.0 0.00 0.00 0.00 40 1011.0
20260503110531 45 360 0.0 4.0 0.00 0.00 0.00 44 1011.0
20260503090119 43 360 0.0 2.0 0.00 0.00 0.00 37 1011.6
20260503081519 43 360 0.0 2.0 0.00 0.00 0.00 42 1011.8
20260503081011 44 360 0.0 0.0 0.00 0.00 0.00 43 1011.8
20260503080510 44 360 0.0 1.0 0.00 0.00 0.00 40 1011.9
20260503072510 47 360 0.0 2.0 0.00 0.00 0.00 36 1012.3